Погода в Таразе

Погода в Таразе : погода сейчас, прогноз погоды и архив. Всё, что Вы хотите узнать о погоде в Таразе!

Поиск расширенной информации на нашем сайте:

Другие новости

Новости СМИ2

Главная страница сайта

Новости сайта

03.07.2017

Напоминаем, что на нашем специализированном сайте Метеоцентр.Азия вы можете получить высокодетализированные автоматические прогнозы погоды по пунктам России, СНГ и мира в авиационном формате (включающие направление и скорость ветра, видимость, явления погоды, количество и форму облачности, нижнюю и верхнюю границу облачности).


Погода в Таразе - сегодня

Время (UTC), дата Ветер
(°,м/с) 
Видим.   Явления Облачность Т
(°С)
Тd
(°С)
f(%) Тe
(°С)
Pmin
(гПа)
dP
(гПа)
Po
(мм)
O2
(г/м3)
Тmin Tmax R s Состояние
почвы
09 13.08.18 050 (СВ) 20000 м    ясно 
+30.1 +4.6 20 +30  1007.8  -1.2  703  254           
12 13.08.18 020 (С) 20000 м    ясно 
+30.3 +4.8 20 +30  1006.7  -0.7  702  254           
15 13.08.18 050 (СВ) 10 км    ясно 
+25.6 +4.3 25 +26  1008.2  0.2  702  258    +31       
18 13.08.18 060 (СВ) 10 км    ясно 
+22.3 +3.4 29 +22  1008.1  -0.8  702  261    +31       
21 13.08.18 220 (ЮЗ) 10 км    ясно 
+15.2 +5.8 53 +17  1010.4  0.5  702  267           
00 14.08.18 220 (ЮЗ) 20000 м    ясно 
+14.3 +5.6 56 +16  1011.3  0.5  703  268           
06 14.08.18 320 (СЗ) 20000 м    ясно 
+25 +6.2 30 +25  1009  0.2  703  258  +13.2         
09 14.08.18 330 (СЗ) 20000 м    ясно 
+31.4 +7.3 22 +31  1005.9  -1.4  702  252           
12 14.08.18 070 (В) 20000 м    ясно 
+32.6 +3.8 16 +33  1004.7  -1  701  252           
15 14.08.18 360 (С) 20000 м    ясно 
+26.3 +5.3 26 +26  1006.5  0.4  701  257    +33.3       
18 14.08.18 110 (В) 10 км    ясно 
+22.6 +6.1 34 +23  1007.5  0.1  701  260    +33.3       
21 14.08.18 220 (ЮЗ) 10 км    ясно 
+20.8 +6.8 40 +21  1007.7  -0.3  701  261           
06 15.08.18 150 (ЮВ) 20000 м    3/3 1000 м 
[Sc diur, vesp]
+33.7 +7 19 +34  1004.3  -0.4  701  250  +18         
09 15.08.18 070 (В) 20000 м    3/3 1000 м 
[Sc diur, vesp]
+35.3 +7 18 +35  1003.7  -0.3  701  249           
12 15.08.18 050 (СВ) 20000 м    ясно 
+35 +5.8 16 +35  1003.4  -0.3  701  249           
15 15.08.18 тихо ()   10 км    3/0 средняя 
[Ac lent]
+29.2 +8.5 27 +30  1005.4  0.6  701  254    +35.6       
18 15.08.18 210 (ЮЗ) 10 км    ясно 
+26.7 +7.4 29 +27  1005.7  -0.3  701  256    +35.6       
21 15.08.18 210 (ЮЗ) 10 км    ясно 
+22.1 +9 43 +23  1006.6  -0.1  701  260           
00 16.08.18 тихо ()   20000 м    ясно 
+18.9 +9.9 56 +21  1008.4  0.9  701  262           
06 16.08.18 340 (С) 20000 м    ясно 
+32 +2.3 15 +32  1006.5  0.2  702  253  +18.7         
09 16.08.18 340 (С) 20000 м    ясно 
+34.5 +0.2 11 +35  1005.6  -0.3  702  251           
15 16.08.18 200 (Ю) 10 км    ясно 
+27 +4.3 23 +27  1008.5  1.1  703  257    +34.6       
21 16.08.18 280 (З) 10 км    ясно 
+20.6 +5.5 37 +21  1011.8  0.8  704  263           
09 17.08.18 040 (СВ) 20000 м    ясно 
+29.3 +1.9 17 +29  1007.1  -1.6  702  255           
15 17.08.18 350 (С) 20000 м    6/0 средняя, верхняя 
[Ac lent|Ci fib]
+24.8 +5.3 28 +25  1005.8  -0.8  701  258    +30.1       
Время (UTC), дата Ветер
(°,м/с) 
Видим.   Явления Облачность Т
(°С)
Тd
(°С)
f(%) Тe
(°С)
Pmin
(гПа)
dP
(гПа)
Po
(мм)
O2
(г/м3)
Тmin Tmax R s Состояние
почвы

Для получения пояснительной информации подведите курсор к названию столбца.

ПОГОДА в Таразе - архив

Всё, что Вы хотите узнать о погоде в Таразе - удобно и подробно!

Выберите нужную дату (начиная с 1 января 2015* года) и нажмите кнопку "Найти".
Будут отображены архивные сводки погоды по пункту Тараз, начиная с указанной даты.


Отображать данные в формате CSV (для использования в таблицах Excel)


Внимание! Наш архив погоды предназначен исключительно для личного некоммерческого использования в познавательных целях. Если Вам необходимы официальные справки о состоянии погоды (для производственных, юридических, коммерческих и т.п. целей), обращайтесь в органы Росгидромета.

*Примечание: данная дата относится к архиву по метеостанциям СССР (Россия, СНГ, Балтия).
Архив по метеостанциям Зарубежной Европы и Азии (кроме Китая) хранится 10 дней, по другим регионам земного шара (Китай, Африка, Америка, Австралия, Океания) - 1 день.

Тараз - район местоположения метеостанции


Название, широта, долгота, высота метеостанции:
Тараз (город) 42.9°ш. 71.4°д. 651 м над ур. моря [Казахстан]

Дополнительная информация

В oтличие oт бoльшинства пoгoдных сайтoв мы публикуем пoдрoбную метеoинфoрмацию в детальнoм прoфессиoнальнoм фoрмате.

Характеристики температуры и влажнoсти вoздуха измеряются на высoте 2 м в тени вдали oт зданий и деревьев.
Скoрoсть ветра измеряется на высoте 10 м (на урoвне рoста челoвека скoрoсть ветра ниже в 1.5-2 раза). Если метеoстанция нахoдится в гoрoде или в лесу, тo скoрoсть ветра занижена на 2-4 м/с пo сравнению с oткрытым местoм. Скoрoсть ветра над акватoриями крупных рек и oзёр, а также на вершинах хoлмoв на 2-5 м/с выше, чем в oбычных услoвиях.
Атмoсфернoе давление в разных тoчках местнoсти мoжет значительнo oтличаться oт давления на метеoстанции, в зависимoсти oт услoвий рельефа (при пoдъёме на 10 м давление пoнижается примернo на 1 мм рт.ст.).